Clarksdale Fletcher Field Air, MS

4:11 AM CST on November 13, 2019 (GMT -0600)
Fletcher

Weather History for KCKM - September, 2019

Change the Weather History Date:

Monday, September 23, 2019

  Actual Average (WUND) Record (WUND)
Temperature  
Mean Temperature 78 °F -  
Max Temperature 87 °F - - (-1)
Min Temperature 69 °F - - (-1)
Cooling Degree Days 13    
Growing Degree Days 28 (Base 50)    
Moisture  
Dew Point 73 °F    
Average Humidity 85    
Maximum Humidity 100    
Minimum Humidity 58    
Precipitation  
Precipitation 0.00 in - - ()
Sea Level Pressure  
Sea Level Pressure 30.05 in    
Wind  
Wind Speed 3 mph ()    
Max Wind Speed 13 mph    
Max Gust Speed 15 mph    
Visibility 10.0 miles    
Events      
Averages and records for this station are not official NWS values.
T = Trace of Precipitation, MM = Missing Value Source: Averaged Metar Reports

Daily Weather History Graph

Daily Weather History Graph

Search for Another Location

Airport or City:

Astronomy

Sep. 23, 2019 Rise Set
Actual Time 6:50 AM CDT 6:57 PM CDT
Civil Twilight 6:25 AM CDT 7:22 PM CDT
Nautical Twilight 5:56 AM CDT 7:51 PM CDT
Astronomical Twilight 5:26 AM CDT 8:21 PM CDT
Moon 12:50 AM CDT (9/23) 3:35 PM CDT (9/23)
Length of Visible Light 12h 57m
Length of Day
12h 07m
Waning Crescent, 33% of the Moon is Illuminated
Sep 23
Waning Crescent
Sep 28
New
Oct 5
First Quarter
Oct 13
Full
Oct 21
Last Quarter

Hourly Weather History & Observations

Time (CDT) Temp. Heat Index Dew Point Humidity Pressure Visibility Wind Dir Wind Speed Gust Speed Precip Events Conditions
12:15 AM 75.2 °F - 69.8 °F 83% 30.04 in 10.0 mi SSE 5.8 mph - N/A   Unknown
12:35 AM 73.4 °F - 69.8 °F 88% 30.04 in 10.0 mi SSE 5.8 mph - N/A   Unknown
12:55 AM 73.4 °F - 69.8 °F 88% 30.04 in 10.0 mi South 4.6 mph - N/A   Unknown
1:35 AM 73.4 °F - 69.8 °F 88% 30.04 in 10.0 mi Calm Calm - N/A   Unknown
1:55 AM 73.4 °F - 69.8 °F 88% 30.04 in 10.0 mi Calm Calm - N/A   Unknown
2:15 AM 73.4 °F - 69.8 °F 88% 30.05 in 10.0 mi Calm Calm - N/A   Unknown
2:35 AM 71.6 °F - 69.8 °F 94% 30.04 in 10.0 mi Calm Calm - N/A   Unknown
2:55 AM 71.6 °F - 69.8 °F 94% 30.04 in 10.0 mi Calm Calm - N/A   Unknown
3:15 AM 71.6 °F - 69.8 °F 94% 30.04 in 10.0 mi Calm Calm - N/A   Unknown
3:35 AM 71.6 °F - 69.8 °F 94% 30.04 in 10.0 mi SSE 4.6 mph - N/A   Unknown
3:55 AM 71.6 °F - 69.8 °F 94% 30.04 in 10.0 mi South 5.8 mph - N/A   Unknown
4:15 AM 71.6 °F - 69.8 °F 94% 30.03 in 10.0 mi South 5.8 mph - N/A   Unknown
4:35 AM 71.6 °F - 69.8 °F 94% 30.03 in 10.0 mi South 3.5 mph - N/A   Unknown
4:55 AM 71.6 °F - 71.6 °F 100% 30.04 in 10.0 mi Calm Calm - N/A   Unknown
5:15 AM 69.8 °F - 69.8 °F 100% 30.04 in 10.0 mi Calm Calm - N/A   Unknown
5:35 AM 71.6 °F - 71.6 °F 100% 30.04 in 10.0 mi Calm Calm - N/A   Unknown
5:55 AM 71.6 °F - 71.6 °F 100% 30.05 in 10.0 mi Calm Calm - N/A   Unknown
6:15 AM 71.6 °F - 71.6 °F 100% 30.05 in 10.0 mi South 4.6 mph - N/A   Unknown
6:35 AM 71.6 °F - 71.6 °F 100% 30.06 in 10.0 mi Calm Calm - N/A   Unknown
6:55 AM 71.6 °F - 71.6 °F 100% 30.06 in 10.0 mi Calm Calm - N/A   Unknown
7:15 AM 73.4 °F - 71.6 °F 94% 30.07 in 10.0 mi Calm Calm - N/A   Unknown
7:35 AM 73.4 °F - 71.6 °F 94% 30.07 in 10.0 mi Calm Calm - N/A   Unknown
7:55 AM 75.2 °F - 71.6 °F 89% 30.07 in 10.0 mi Calm Calm - N/A   Unknown
8:15 AM 77.0 °F - 73.4 °F 89% 30.08 in 10.0 mi SSW 6.9 mph - N/A   Unknown
8:35 AM 78.8 °F - 73.4 °F 83% 30.08 in 10.0 mi SW 4.6 mph - N/A   Unknown
8:55 AM 80.6 °F 85.4 °F 73.4 °F 79% 30.09 in 10.0 mi SW 6.9 mph - N/A   Unknown
9:15 AM 80.6 °F 85.4 °F 73.4 °F 79% 30.09 in 10.0 mi SW 8.1 mph - N/A   Unknown
9:35 AM 82.4 °F 89.5 °F 75.2 °F 79% 30.09 in 10.0 mi WSW 8.1 mph - N/A   Unknown
9:55 AM 84.2 °F 92.3 °F 75.2 °F 74% 30.09 in 10.0 mi WSW 8.1 mph 15.0 mph N/A   Unknown
10:15 AM 82.4 °F 89.5 °F 75.2 °F 79% 30.10 in 10.0 mi West 12.7 mph - N/A   Unknown
10:35 AM 82.4 °F 89.5 °F 75.2 °F 79% 30.10 in 10.0 mi WSW 9.2 mph 15.0 mph N/A   Unknown
10:55 AM 84.2 °F 92.3 °F 75.2 °F 74% 30.10 in 10.0 mi WSW 9.2 mph - N/A   Unknown
11:15 AM 84.2 °F 92.3 °F 75.2 °F 74% 30.10 in 10.0 mi WSW 8.1 mph - N/A   Unknown
11:35 AM 84.2 °F 92.3 °F 75.2 °F 74% 30.10 in 10.0 mi WSW 10.4 mph - N/A   Unknown
11:55 AM 86.0 °F 95.1 °F 75.2 °F 70% 30.09 in 10.0 mi WSW 9.2 mph - N/A   Unknown
12:15 PM 86.0 °F 95.1 °F 75.2 °F 70% 30.08 in 10.0 mi WSW 8.1 mph - N/A   Unknown
12:35 PM 87.8 °F 93.8 °F 71.6 °F 58% 30.08 in 10.0 mi WSW 8.1 mph - N/A   Unknown
12:55 PM 86.0 °F 95.1 °F 75.2 °F 70% 30.07 in 10.0 mi WNW 11.5 mph - N/A   Unknown
1:15 PM 86.0 °F 95.1 °F 75.2 °F 70% 30.07 in 10.0 mi NW 9.2 mph - N/A   Unknown
1:35 PM 84.2 °F 90.9 °F 73.4 °F 70% 30.06 in 10.0 mi WNW 10.4 mph - N/A   Unknown
1:55 PM 84.2 °F 90.9 °F 73.4 °F 70% 30.06 in 10.0 mi NW 9.2 mph - N/A   Unknown
2:15 PM 84.2 °F 90.9 °F 73.4 °F 70% 30.05 in 10.0 mi WNW 9.2 mph - N/A   Unknown
2:35 PM 84.2 °F 92.3 °F 75.2 °F 74% 30.05 in 10.0 mi NW 6.9 mph - N/A   Unknown
2:55 PM 84.2 °F 92.3 °F 75.2 °F 74% 30.05 in 10.0 mi NNW 6.9 mph 13.8 mph N/A   Unknown
3:15 PM 84.2 °F 90.9 °F 73.4 °F 70% 30.05 in 10.0 mi NNW 6.9 mph - N/A   Unknown
3:35 PM 84.2 °F 90.9 °F 73.4 °F 70% 30.04 in 9.0 mi NW 4.6 mph - N/A   Unknown
3:55 PM 84.2 °F 90.9 °F 73.4 °F 70% 30.03 in 10.0 mi Variable 5.8 mph - N/A   Unknown
4:15 PM 84.2 °F 90.9 °F 73.4 °F 70% 30.03 in 10.0 mi Calm Calm - N/A   Unknown
4:35 PM 84.2 °F 90.9 °F 73.4 °F 70% 30.02 in 10.0 mi Calm Calm - N/A   Unknown
5:35 PM 84.2 °F 90.9 °F 73.4 °F 70% 30.01 in 10.0 mi Calm Calm - N/A   Unknown
5:55 PM 84.2 °F 90.9 °F 73.4 °F 70% 30.01 in 10.0 mi Calm Calm - N/A   Unknown
6:15 PM 82.4 °F 89.5 °F 75.2 °F 79% 30.01 in 10.0 mi Calm Calm - N/A   Unknown
6:35 PM 82.4 °F 88.2 °F 73.4 °F 74% 30.00 in 10.0 mi Calm Calm - N/A   Unknown
6:55 PM 82.4 °F 89.5 °F 75.2 °F 79% 30.00 in 10.0 mi Calm Calm - N/A   Unknown
7:35 PM 78.8 °F - 75.2 °F 89% 30.00 in 10.0 mi Calm Calm - N/A   Unknown
7:55 PM 78.8 °F - 75.2 °F 89% 30.00 in 10.0 mi Calm Calm - N/A   Unknown
8:15 PM 78.8 °F - 75.2 °F 89% 30.01 in 10.0 mi Calm Calm - N/A   Unknown
8:35 PM 77.0 °F - 77.0 °F 100% 30.01 in 10.0 mi Calm Calm - N/A   Unknown
8:55 PM 77.0 °F - 77.0 °F 100% 30.01 in 10.0 mi Calm Calm - N/A   Unknown
9:15 PM 77.0 °F - 75.2 °F 94% 30.02 in 10.0 mi Calm Calm - N/A   Unknown
9:35 PM 77.0 °F - 77.0 °F 100% 30.02 in 10.0 mi Calm Calm - N/A   Unknown
9:55 PM 77.0 °F - 77.0 °F 100% 30.02 in 10.0 mi Calm Calm - N/A   Unknown
10:15 PM 75.2 °F - 75.2 °F 100% 30.02 in 10.0 mi Calm Calm - N/A   Unknown
10:35 PM 75.2 °F - 75.2 °F 100% 30.02 in 10.0 mi Calm Calm - N/A   Unknown
10:55 PM 75.2 °F - 75.2 °F 100% 30.02 in 10.0 mi Calm Calm - N/A   Unknown
11:15 PM 75.2 °F - 75.2 °F 100% 30.01 in 10.0 mi Calm Calm - N/A   Unknown
11:35 PM 75.2 °F - 75.2 °F 100% 30.01 in 10.0 mi Calm Calm - N/A   Unknown
11:55 PM 73.4 °F - 73.4 °F 100% 30.01 in 10.0 mi Calm Calm - N/A   Unknown